Temp
2 2 2 2 2 2 2 2 2 2 2 2 3 2 3 3 3 3 3 2 2 1 1 2 3 2 2 2 2 3 2 2 3 2 4 5 4 5 6 7 6 8 6 6 7 8 9 11 10 11 11 10 11 10
2 2 2 2 2 2 2 2 2 2 2 2 2 2 2 2 2 2 2 2 2 1 2 3 3 3 3 3 2 1 3 3 3 5 4 4 5 4 6 7 7 7 9 7 7 8 10 9 10 10 10 10 11 10
1 1 1 2 2 2 2 2 2 2 2 2 2 3 2 2 2 2 2 2 1 -0 -1 -0 1 3 3 3 3 2 3 3 2 3 2 4 4 5 6 6 7 8 8 9 9 10 10 11 10 8 9 10 10 9
1 1 1 1 1 1 1 2 2 2 2 2 2 2 2 3 2 2 2 2 1 -0 0 -0 4 2 4 4 4 2 3 4 3 2 3 3 3 5 7 5 6 7 7 7 8 10 9 10 8 9 8 9 10 9
1 1 1 1 1 1 1 1 1 1 1 1 2 1 2 2 2 2 2 2 2 1 -1 0 2 2 4 3 3 2 2 2 2 2 2 3 4 5 5 6 6 5 6 7 9 10 9 11 10 10 9 10 10 9
0 1 1 1 1 1 1 1 1 1 1 1 1 1 1 1 1 1 -1 2 2 0 0 0 1 0 4 4 1 1 2 2 3 2 3 4 5 5 5 6 8 9 9 10 9 10 11 9 8 9 9 9 9 8
0 1 1 1 1 1 1 1 1 1 1 1 1 1 1 1 1 1 -1 2 1 0 0 0 -1 -1 1 2 1 1 2 2 2 2 2 4 5 5 6 6 8 9 9 9 8 8 8 8 8 7 8 8 9 8
0 0 0 1 1 1 1 1 1 1 1 1 1 1 1 1 1 0 1 1 1 1 -0 -1 -2 -2 1 -1 2 3 3 2 2 3 4 4 5 5 6 7 9 9 10 8 6 8 9 7 6 6 7 6 7 7
1 0 0 0 1 1 1 0 0 0 1 1 1 1 0 0 -1 1 2 2 1 0 -4 -2 -3 -1 1 2 3 2 2 3 3 4 5 5 5 6 7 6 6 8 9 10 7 5 5 6 6 6 6 6 6 6
-0 -0 0 0 -0 0 0 1 0 1 1 1 1 -0 -2 0 2 2 2 -2 -1 0 -1 -1 -1 1 1 3 3 3 3 4 5 5 4 5 6 8 8 6 8 8 8 6 5 5 4 5 5 5 5 5 6 6
-0 -0 0 -0 -0 0 1 1 1 0 0 0 -1 -2 1 1 1 -4 -6 -4 -0 0 1 1 1 1 2 2 3 4 4 5 6 5 5 5 6 8 9 8 9 7 6 5 6 6 5 5 4 4 4 4 4 4
-0 -0 -0 -0 0 0 1 1 1 0 0 0 -0 0 0 -2 -6 -4 -6 -5 -0 1 1 1 2 2 2 3 4 3 4 4 6 4 5 5 5 6 7 8 8 4 3 3 3 3 3 3 3 3 3 2 3 4
-0 -0 -0 -0 0 0 0 0 0 0 -1 -1 -2 -5 -4 -5 -2 -3 -8 -5 -1 1 3 2 3 2 2 2 3 4 5 5 3 3 4 4 4 1 1 0 0 1 1 2 2 3 3 3 3 2 2 2 3 3
-0 -0 -0 -0 -0 0 0 0 0 -0 -1 -1 -2 -3 -3 -9 -5 -6 -5 -1 1 1 1 1 2 3 3 3 4 5 4 3 2 2 3 -0 1 0 0 0 0 0 0 -1 0 1 1 -1 1 1 1 2 2 2
-0 -0 -0 -0 -0 -0 -0 -0 -1 -1 -1 -2 -4 -5 -7 -5 -5 -0 -1 -1 0 0 0 -0 0 3 4 4 4 3 3 2 2 3 2 -0 1 1 0 0 -1 -1 -1 -2 -2 -3 -5 -2 -2 -1 0 1 2 2
-0 0 -0 0 0 -0 -0 -1 -1 -1 -3 -3 -4 -4 -5 -6 -3 -3 -2 -1 -1 -0 -1 -1 1 4 5 5 4 4 2 2 3 1 1 1 0 -0 -0 -1 -1 -2 -2 -2 -1 -1 -2 -1 -2 -2 -1 0 1 1
-0 -1 -1 -1 -1 -0 -1 -2 -1 -6 -5 -7 -5 -7 -7 -6 -5 -3 -3 -2 -1 -1 -1 1 3 4 4 2 3 2 2 2 1 0 -0 -0 -1 -1 -2 -1 -2 -2 -3 -2 -3 -2 -3 -2 -2 -2 -3 -3 -1 -1
-1 -1 -1 -1 -1 -1 -2 -2 -3 -7 -7 -9 -6 -7 -6 -6 -5 -4 -4 -3 -2 -2 -1 0 -0 2 4 4 4 2 1 0 0 0 0 -1 -2 -2 -2 -3 -3 -3 -4 -4 -4 -3 -3 -3 -3 -3 -3 -2 -2 -2
-1 -1 -1 -1 -1 -1 -5 -3 -3 -6 -7 -8 -7 -7 -5 -4 -5 -5 -4 -3 -3 -2 -2 -1 0 0 0 1 0 1 0 -0 -0 -1 -1 -1 -2 -2 -2 -2 -3 -3 -3 -3 -3 -3 -3 -3 -3 -2 -2 -2 -3 -2
-1 -1 -1 -1 -1 -1 -7 -8 -5 -8 -5 -6 -5 -7 -5 -5 -6 -5 -5 -3 -3 -2 -2 -3 -2 -1 -2 -2 -1 -0 -1 -1 -1 -1 -1 -1 -1 -1 -1 -1 -2 -2 -2 -2 -2 -2 -2 -3 -2 -2 -2 -2 -3 -4
-2 -2 -2 -2 -2 -3 -10 -13 -10 -8 -6 -4 -4 -5 -6 -6 -5 -5 -5 -4 -4 -6 -6 -4 -3 -3 -3 -2 -1 -1 -1 -1 -1 -1 -1 -2 -2 -2 -2 -2 -2 -1 -1 -2 -2 -3 -3 -4 -4 -4 -4 -4 -4 -4
-3 -3 -2 -4 -6 -8 -12 -8 -8 -9 -9 -9 -6 -6 -7 -7 -6 -5 -6 -6 -5 -5 -5 -5 -4 -4 -3 -3 -3 -3 -2 -2 -3 -2 -2 -2 -2 -2 -3 -3 -2 -3 -3 -3 -3 -4 -4 -4 -4 -4 -5 -5 -5 -5
-3 -3 -4 -6 -10 -12 -10 -11 -10 -13 -8 -7 -7 -6 -7 -7 -7 -5 -6 -5 -5 -5 -6 -5 -4 -4 -4 -4 -4 -4 -4 -3 -3 -4 -4 -4 -4 -4 -4 -4 -3 -3 -4 -5 -4 -4 -4 -4 -5 -5 -6 -6 -6 -7
-2 -7 -12 -12 -15 -10 -17 -14 -16 -13 -11 -7 -6 -5 -6 -7 -6 -6 -5 -5 -5 -6 -7 -6 -5 -4 -4 -4 -5 -5 -4 -4 -4 -4 -4 -4 -5 -6 -6 -6 -5 -5 -5 -5 -5 -5 -5 -5 -5 -5 -6 -6 -7 -8
-6 -9 -12 -13 -19 -13 -15 -14 -15 -11 -7 -5 -5 -5 -6 -7 -6 -6 -5 -6 -6 -7 -8 -7 -5 -5 -5 -5 -5 -5 -5 -5 -5 -5 -6 -5 -5 -5 -6 -6 -6 -5 -5 -5 -6 -6 -6 -6 -6 -6 -6 -7 -8 -8
-9 -12 -10 -11 -15 -11 -13 -10 -12 -9 -7 -5 -5 -6 -7 -6 -8 -7 -7 -8 -8 -8 -9 -9 -8 -5 -6 -6 -6 -6 -7 -5 -5 -6 -7 -6 -5 -5 -5 -5 -6 -6 -5 -4 -4 -6 -7 -7 -7 -7 -8 -8 -8 -7
-11 -11 -11 -7 -7 -9 -10 -9 -8 -8 -10 -8 -6 -6 -5 -7 -8 -7 -8 -9 -9 -9 -10 -9 -8 -7 -7 -7 -8 -8 -7 -6 -6 -7 -7 -6 -5 -4 -4 -5 -6 -6 -4 -3 -3 -3 -5 -7 -7 -7 -8 -8 -8 -8
-14 -13 -11 -13 -13 -14 -13 -13 -11 -9 -8 -8 -8 -8 -8 -7 -8 -9 -9 -10 -10 -10 -8 -8 -8 -8 -8 -8 -8 -8 -8 -8 -7 -7 -6 -6 -6 -5 -5 -4 -4 -4 -3 -3 -3 -3 -4 -4 -6 -7 -7 -7 -8 -8
-12 -11 -11 -14 -16 -16 -15 -13 -10 -8 -8 -9 -9 -9 -10 -10 -11 -11 -11 -11 -10 -9 -9 -9 -8 -8 -8 -7 -7 -7 -7 -7 -7 -7 -7 -7 -7 -7 -6 -5 -4 -4 -4 -4 -4 -4 -4 -5 -5 -6 -7 -8 -9 -9
-13 -13 -14 -18 -15 -13 -14 -14 -13 -13 -10 -10 -9 -9 -10 -11 -12 -12 -12 -11 -11 -10 -10 -10 -9 -8 -9 -8 -8 -7 -7 -6 -6 -6 -6 -7 -8 -7 -6 -5 -4 -4 -4 -5 -6 -8 -7 -6 -7 -8 -8 -8 -8 -8
-14 -15 -15 -15 -14 -15 -16 -15 -14 -11 -12 -14 -14 -12 -11 -11 -11 -12 -12 -12 -11 -10 -10 -10 -10 -10 -9 -9 -9 -8 -7 -6 -5 -4 -4 -6 -6 -6 -5 -5 -5 -5 -5 -5 -5 -6 -6 -6 -6 -6 -7 -7 -8 -8
-16 -18 -16 -13 -14 -16 -17 -16 -17 -16 -15 -14 -14 -14 -13 -12 -13 -13 -13 -12 -11 -12 -11 -11 -11 -11 -10 -9 -8 -8 -7 -7 -6 -5 -5 -5 -5 -5 -5 -5 -5 -5 -5 -5 -5 -5 -5 -5 -6 -7 -7 -8 -9 -9
-21 -21 -21 -19 -17 -16 -17 -18 -17 -17 -17 -17 -15 -15 -16 -14 -12 -14 -13 -13 -13 -13 -12 -11 -10 -10 -10 -9 -8 -8 -7 -7 -6 -6 -6 -5 -5 -6 -6 -6 -5 -5 -5 -5 -5 -5 -6 -6 -7 -7 -8 -8 -9 -9
Height
833 833 834 833 838 840 838 837 837 837 837 837 838 838 838 838 838 839 839 839 840 840 836 832 833 836 836 836 838 834 835 828 827 832 825 818 816 804 798 789 796 792 803 799 790 784 770 742 752 754 743 736 733 732
829 829 830 829 835 837 836 834 834 834 834 834 834 835 835 834 835 836 836 836 836 836 833 828 827 826 827 827 833 833 829 826 823 813 812 812 800 800 788 784 778 787 774 784 779 764 745 745 742 737 737 736 731 731
825 824 825 825 830 832 831 831 830 830 830 830 830 831 831 831 831 832 831 832 832 830 826 823 816 814 818 817 821 827 820 820 819 817 821 813 809 792 784 776 770 765 763 763 766 749 746 737 735 735 732 731 728 728
821 820 822 823 826 827 827 827 826 825 826 826 826 826 827 827 828 828 828 829 829 829 823 816 809 808 807 808 808 808 805 811 811 815 815 809 803 786 775 777 773 765 764 761 753 747 745 736 734 727 726 723 723 724
817 817 818 820 822 823 823 822 821 820 820 820 821 821 821 822 823 824 823 822 823 827 821 811 806 800 798 797 797 797 801 804 807 808 801 794 785 787 775 775 765 760 757 756 742 736 738 726 723 721 723 722 721 721
812 814 815 816 817 818 818 817 816 816 815 815 816 816 817 818 820 820 819 812 811 815 816 807 794 788 786 785 786 788 787 792 794 791 784 777 774 776 763 753 721 738 736 736 732 729 726 725 725 720 720 721 719 720
809 809 811 812 813 813 813 812 811 811 811 811 811 812 812 813 815 816 816 811 810 812 809 801 798 784 781 780 777 776 776 777 778 778 770 766 762 764 749 728 722 722 723 725 724 726 726 721 718 717 716 718 719 720
805 806 808 809 809 808 808 807 806 806 806 806 806 807 807 808 809 807 804 807 809 811 810 806 800 790 775 777 771 766 762 760 758 755 749 750 752 749 729 708 715 715 716 720 718 716 713 713 714 715 715 717 719 720
801 802 804 804 804 803 803 802 801 801 800 800 800 801 802 803 802 797 799 799 802 808 809 796 798 788 771 769 765 760 757 749 744 736 732 734 729 717 704 707 707 705 705 702 706 711 716 713 714 713 714 715 717 718
798 799 800 800 800 799 799 798 798 797 796 796 796 798 799 795 794 796 793 796 795 791 789 781 776 771 770 763 759 757 748 738 725 722 723 717 705 696 693 694 693 692 696 700 708 712 714 712 711 711 711 712 714 716
796 796 797 796 796 795 795 794 794 793 793 793 794 795 793 793 794 795 803 798 785 778 767 759 759 756 756 759 757 753 741 729 710 711 710 706 697 677 680 682 684 687 689 691 694 697 701 702 705 707 710 710 712 714
793 793 792 791 791 791 790 790 789 789 789 789 791 791 792 793 800 802 805 793 775 759 750 749 744 744 744 743 746 741 734 725 702 705 702 701 682 672 670 670 676 682 687 692 695 698 700 702 704 706 707 709 711 711
789 788 788 787 787 787 786 785 784 784 784 787 789 792 795 801 796 797 817 795 771 752 745 743 739 730 735 738 736 728 714 703 710 709 702 688 680 685 684 685 686 687 690 694 697 699 700 703 705 706 707 708 709 710
785 784 783 783 783 783 782 779 779 778 781 782 785 792 791 814 793 790 786 771 765 758 753 748 735 725 723 724 714 707 709 708 718 715 698 695 690 689 688 688 689 692 693 696 698 700 701 704 706 707 707 708 708 709
780 779 779 778 778 778 776 776 775 776 778 779 785 790 796 777 774 765 765 765 760 758 753 748 739 725 713 708 702 709 710 714 705 693 691 694 690 690 690 691 693 695 697 699 700 702 704 705 707 708 708 708 709 709
776 774 772 772 772 773 773 773 774 775 776 777 779 779 775 779 768 764 760 758 756 753 751 744 733 710 698 694 698 698 708 702 690 694 692 692 692 693 692 693 696 697 699 700 702 704 706 707 709 710 710 711 712 713
771 767 766 765 767 769 770 772 773 775 777 780 774 770 771 770 766 760 757 755 754 754 749 733 715 696 688 700 694 695 695 690 693 694 694 694 696 697 698 698 698 700 702 704 706 707 709 710 711 712 714 717 718 719
764 762 761 761 764 766 768 769 772 777 781 776 773 767 764 762 760 757 754 752 753 750 746 733 730 710 691 689 686 697 697 697 696 695 696 698 700 701 702 703 704 705 707 709 710 711 712 714 716 719 721 723 724 726
759 760 760 761 763 766 768 771 771 776 770 769 763 761 757 753 751 750 750 749 748 746 743 734 725 721 716 708 708 701 701 700 700 702 702 704 705 706 707 708 709 711 713 714 715 717 719 721 723 725 727 728 730 732
757 759 761 763 764 765 770 772 769 772 766 763 758 759 756 754 751 749 748 746 743 739 738 739 733 730 727 720 712 705 705 705 706 707 708 709 710 711 712 714 715 717 718 720 721 723 726 728 731 732 734 735 736 739
758 760 761 762 764 765 767 772 772 767 763 758 755 755 756 753 751 750 748 746 746 750 748 742 738 733 728 720 713 710 708 709 709 711 712 715 716 716 718 720 720 721 723 725 728 731 733 736 739 740 741 743 745 747
756 759 761 762 764 766 769 769 769 766 768 763 758 757 758 757 755 750 750 751 751 749 747 743 738 733 728 724 720 716 714 714 716 717 719 719 722 723 725 725 725 728 729 732 734 737 741 743 745 747 748 751 753 754
755 758 759 762 769 774 774 769 773 773 769 762 759 757 758 757 754 751 755 754 753 752 749 742 737 735 732 728 725 723 722 722 724 726 727 728 729 730 731 732 733 734 737 740 741 743 746 749 751 751 754 757 758 760
753 758 767 771 779 776 779 780 780 776 771 761 759 757 758 758 755 756 756 757 758 755 750 746 741 738 736 734 733 733 732 731 731 732 733 734 735 738 739 740 741 743 744 745 747 748 751 754 756 757 760 761 765 767
761 770 775 783 787 781 789 787 788 776 765 758 757 757 758 759 758 758 759 762 760 759 756 752 747 746 744 743 741 740 738 737 738 739 741 742 743 744 746 747 748 750 751 751 753 755 758 760 762 764 767 769 770 774
772 777 776 778 787 778 785 780 784 773 766 758 757 757 759 758 767 770 768 769 767 765 763 761 757 752 751 749 748 747 746 744 744 745 749 748 749 749 750 751 753 757 757 757 758 761 764 767 769 771 773 776 778 778
779 778 773 768 768 771 774 772 770 771 776 770 763 760 756 765 772 770 770 772 770 768 766 763 760 757 756 754 753 751 750 749 749 751 753 753 754 755 756 756 758 761 764 764 765 767 769 772 774 776 778 782 784 785
776 776 777 780 779 781 784 786 780 775 772 771 769 771 771 770 773 776 774 773 770 767 765 763 761 760 759 757 756 755 755 755 755 755 756 759 760 760 762 763 765 768 770 771 772 774 776 778 780 782 784 785 787 789
775 773 774 784 787 788 788 784 779 773 773 772 774 774 777 778 780 778 775 773 770 768 767 766 765 764 763 761 760 760 760 760 760 761 764 767 768 771 770 770 772 774 776 777 781 782 783 785 786 787 789 790 792 792
777 775 780 792 787 784 785 783 781 778 775 773 774 776 778 781 781 779 777 775 773 772 772 770 768 767 767 765 765 764 763 764 765 766 766 769 772 774 775 777 779 781 782 783 785 787 789 790 791 793 794 794 795 796
776 777 782 785 786 785 784 782 780 778 777 778 778 779 781 782 783 782 781 779 778 776 774 773 772 772 771 770 769 768 767 767 768 769 770 771 774 779 782 784 786 787 789 790 791 791 793 795 794 795 796 797 798 797
780 788 785 783 786 785 783 784 786 785 784 783 786 784 784 784 788 785 784 782 780 779 779 778 776 775 774 773 772 771 771 771 772 774 776 777 781 785 788 790 791 793 794 795 796 796 797 797 797 798 799 800 800 800
791 792 793 792 791 789 790 790 792 793 792 794 791 791 792 790 788 788 786 785 784 782 781 780 779 777 776 776 775 775 777 778 779 781 783 785 788 790 792 794 796 797 797 798 799 799 800 801 801 801 802 802 801 801
Wind_Speed
8 8 8 7 9 10 10 9 10 9 9 9 10 10 9 9 9 8 6 6 5 2 5 9 4 4 3 3 3 3 4 3 2 2 3 4 5 7 7 8 7 9 5 4 5 6 11 3 5 7 4 5 4 2
11 12 10 8 12 13 12 12 11 11 12 11 11 11 10 10 10 10 9 9 6 4 4 17 21 24 23 22 5 4 6 6 3 4 2 3 4 3 6 6 6 7 12 5 8 6 5 5 6 6 3 5 4 2
11 11 11 11 13 14 13 14 14 14 14 13 13 13 12 10 10 8 9 10 5 2 5 3 10 20 21 30 30 7 6 7 5 2 1 3 7 3 5 8 4 3 4 8 10 12 20 19 15 8 7 7 4 4
10 9 10 11 13 14 14 15 16 16 16 16 15 15 14 13 11 11 12 11 4 5 3 6 12 12 17 21 29 38 32 10 4 3 4 5 5 5 4 3 3 5 4 5 11 13 14 18 9 12 9 7 5 3
10 10 11 12 13 15 16 15 16 17 17 16 17 18 16 14 13 13 16 18 18 8 3 6 16 29 32 25 25 29 26 14 7 5 6 10 6 7 10 7 15 6 8 6 9 14 8 14 7 3 5 5 4 2
11 11 12 14 14 14 14 15 15 15 15 16 17 18 17 15 13 8 3 9 13 23 4 3 7 5 17 22 22 23 23 11 10 6 5 5 7 5 4 10 30 16 16 18 19 14 17 13 7 3 4 4 2 3
12 12 12 12 14 13 14 14 14 15 15 15 16 17 18 18 16 6 5 1 1 2 3 4 4 4 5 6 4 3 13 7 9 7 9 12 7 9 5 14 4 10 9 11 12 10 6 7 6 8 5 4 3 2
11 11 11 12 12 12 13 14 16 16 16 16 16 14 15 16 16 17 29 27 26 12 3 3 4 3 7 3 3 3 4 6 7 6 5 11 6 7 9 13 16 20 16 15 10 13 6 1 5 5 4 4 4 4
11 13 10 10 12 14 13 12 12 12 15 16 19 18 14 7 5 11 18 21 22 10 3 4 4 5 2 3 3 2 3 3 3 6 5 8 7 8 9 8 9 13 14 15 6 6 6 5 7 6 5 5 4 4
5 6 8 11 11 12 11 12 13 15 14 11 5 3 2 6 10 10 5 1 4 4 4 5 4 9 3 0 3 2 3 4 3 5 4 4 10 14 15 11 9 8 10 7 6 5 6 6 7 6 6 4 3 3
6 8 10 11 11 12 13 14 15 15 7 3 4 3 4 3 3 2 2 2 3 3 5 6 13 14 5 10 8 4 3 3 3 4 5 3 4 15 17 16 14 9 9 11 5 4 8 5 7 7 5 4 4 4
10 11 13 12 12 14 14 15 16 10 6 6 5 3 2 2 3 2 3 5 4 4 3 4 5 7 4 5 6 4 4 3 5 4 3 3 4 5 8 15 11 7 8 7 5 7 6 5 5 4 3 3 4 5
13 14 15 13 13 14 16 18 18 13 11 8 2 3 3 2 3 5 5 5 4 3 4 5 6 2 4 5 4 4 6 5 2 1 4 4 2 3 4 4 6 6 7 7 5 5 6 4 4 4 3 3 3 4
14 13 13 13 14 15 17 15 13 7 5 3 3 5 5 3 5 5 3 3 6 5 9 10 5 3 3 5 3 4 3 1 1 2 5 2 2 4 3 3 4 5 6 7 6 4 5 4 4 3 2 2 3 3
15 16 17 17 16 15 13 8 6 8 3 3 3 5 6 5 3 3 4 3 3 4 6 6 5 4 3 5 3 3 1 4 5 4 2 2 1 3 3 3 6 6 5 5 4 4 3 6 7 5 4 4 7 8
16 20 20 18 16 13 8 7 6 3 1 2 2 3 4 2 4 2 2 3 2 2 5 4 4 5 6 3 4 6 5 5 3 2 1 1 2 2 4 5 5 5 5 5 6 7 8 8 7 8 13 14 13 14
16 15 22 16 13 7 8 5 2 2 3 2 4 3 1 1 4 3 1 2 0 2 2 5 5 5 0 2 3 3 3 1 1 1 1 3 3 4 4 5 5 6 5 7 9 11 11 14 16 16 10 16 21 21
17 16 8 5 10 9 3 4 3 3 3 3 1 3 2 3 2 3 3 1 1 2 2 3 4 4 4 4 3 2 1 1 3 3 3 4 4 5 5 6 8 10 10 13 15 16 18 16 13 10 18 20 22 22
12 4 4 11 10 4 3 2 1 3 5 2 3 2 2 2 2 2 1 3 7 6 3 3 4 3 3 3 6 4 2 2 2 3 5 6 8 8 10 13 13 13 13 13 14 13 16 18 16 18 18 17 16 17
7 8 6 10 7 3 2 2 2 2 3 3 1 2 2 2 2 1 2 2 2 2 1 2 2 3 4 8 7 1 3 3 4 4 5 5 8 10 10 11 11 14 15 17 18 18 18 19 19 19 19 18 18 16
9 8 9 8 2 0 2 1 2 3 2 2 1 1 2 2 1 1 2 2 2 1 2 2 4 6 8 9 6 5 5 5 5 3 3 4 7 10 11 12 14 14 13 12 11 15 17 15 16 18 20 21 22 22
5 11 5 4 2 3 2 1 2 3 0 2 2 1 2 2 2 1 1 3 1 2 2 3 5 4 5 6 5 9 12 16 14 13 12 11 5 5 5 10 12 8 12 12 14 14 15 16 19 20 22 23 25 26
12 7 3 2 3 3 4 5 2 2 0 3 2 2 2 2 2 1 2 1 2 3 8 6 7 9 5 9 12 19 17 14 7 9 11 11 13 13 13 15 13 11 10 13 16 18 19 19 20 24 24 25 25 26
7 4 3 2 3 3 2 2 1 2 3 2 2 2 2 2 3 2 2 2 3 7 6 9 9 4 4 8 7 7 12 13 13 15 14 12 8 11 14 14 16 15 14 16 19 20 20 20 22 26 26 28 25 23
5 3 4 3 3 4 4 5 5 3 2 1 2 1 2 2 2 2 1 2 4 5 7 10 8 6 4 4 5 10 15 13 10 7 14 13 10 12 14 17 18 15 17 22 19 23 23 26 26 27 26 26 27 25
3 3 3 3 3 2 3 1 1 1 2 2 1 2 1 2 3 1 1 3 3 3 5 6 5 4 4 7 3 4 9 11 15 10 10 10 7 6 6 6 5 11 16 25 29 27 25 26 27 27 24 21 20 23
3 3 2 1 1 2 1 2 1 2 2 2 2 3 2 3 1 1 1 3 2 6 12 11 9 6 4 5 9 10 9 9 12 12 10 12 11 10 11 11 11 14 17 24 26 28 29 28 27 27 26 22 19 17
3 2 3 2 2 2 3 1 1 1 1 2 1 3 2 2 1 2 2 9 12 11 7 8 8 6 8 9 11 13 15 16 18 19 20 20 18 20 21 21 20 19 20 23 25 26 27 27 26 24 23 22 19 16
2 1 2 3 3 3 1 2 1 1 3 0 1 1 1 2 3 4 6 13 9 7 8 8 9 8 9 10 10 9 7 6 5 7 9 5 5 12 17 21 23 24 26 26 24 24 24 23 23 22 20 19 17 16
2 1 3 2 3 0 2 1 2 2 2 2 1 2 2 2 6 10 11 12 12 9 8 9 9 9 8 7 7 10 9 8 8 7 5 5 9 18 21 24 25 25 26 27 26 22 20 21 21 20 19 18 16 14
1 2 3 2 2 2 2 3 4 2 2 2 2 2 1 1 2 10 16 12 9 10 12 14 14 14 11 10 7 5 6 7 9 8 15 23 22 21 21 21 21 21 21 22 22 22 21 19 19 18 17 16 15 15
3 2 3 2 1 3 3 3 2 2 3 3 3 2 2 2 2 6 13 13 11 14 11 11 12 11 11 6 4 2 4 11 17 23 23 24 23 22 21 21 20 20 20 20 19 19 17 18 17 16 15 13 12 12
2 2 2 2 3 3 3 3 4 3 3 3 2 2 0 1 1 2 8 10 7 9 11 9 8 8 9 7 8 11 14 17 18 20 20 21 21 21 20 19 19 19 19 19 18 17 16 15 15 13 12 11 11 11
Wind_Direction
259 264 273 273 269 268 271 275 277 280 281 284 280 286 282 281 276 282 272 286 227 228 261 242 204 181 216 209 229 304 351 307 309 171 198 213 224 219 224 208 191 210 199 196 213 233 270 208 77 181 232 298 285 303
264 260 259 266 268 268 270 269 272 277 276 273 275 281 286 290 290 278 277 276 272 216 252 286 274 251 239 237 227 209 237 276 262 244 235 285 255 232 207 246 199 236 221 203 196 215 252 200 246 254 238 249 279 285
271 264 258 259 263 269 270 271 271 270 270 273 268 270 274 276 285 284 280 282 262 235 278 234 248 268 248 244 232 235 243 210 238 170 312 229 258 267 219 235 221 252 198 229 255 259 266 270 266 245 232 237 259 241
266 263 260 262 269 274 275 276 273 270 269 268 265 263 265 270 272 279 283 285 243 276 251 268 272 254 261 249 242 222 234 233 224 168 228 244 242 188 256 291 271 215 134 218 256 258 281 279 260 259 239 212 225 227
260 261 263 269 271 275 277 279 273 272 272 269 267 269 259 259 264 274 280 273 262 212 246 276 298 274 255 243 243 232 224 227 229 224 219 236 236 240 250 276 268 192 210 213 250 244 246 268 258 242 200 215 218 191
258 261 268 273 272 274 276 280 276 274 274 271 265 264 261 259 262 285 323 261 257 231 259 257 241 255 252 246 234 234 223 216 217 228 218 232 229 223 236 232 247 231 238 242 254 265 248 249 237 199 189 194 220 225
257 262 266 264 273 276 278 277 277 274 274 274 267 263 261 256 250 202 213 261 265 117 285 319 289 261 248 237 227 226 220 211 214 224 230 238 233 205 245 245 127 203 220 241 250 243 239 197 219 199 180 180 195 231
256 257 265 267 273 277 282 280 278 277 275 278 272 271 270 263 262 254 252 253 258 266 234 266 264 307 200 234 244 205 226 198 203 217 202 218 222 227 245 252 237 251 252 256 230 218 255 157 140 174 167 152 182 229
253 264 264 269 276 279 280 300 301 290 284 277 275 269 269 233 216 252 268 265 247 207 219 225 210 277 136 240 237 250 239 247 223 212 206 168 207 217 229 207 208 217 214 239 192 191 206 190 185 186 189 199 213 230
235 250 273 282 283 287 299 298 294 302 295 296 279 147 241 221 238 276 267 223 206 198 218 250 184 237 173 165 266 280 220 226 238 216 164 230 241 247 238 227 241 255 216 170 146 200 211 231 206 202 205 184 192 208
272 273 279 278 280 291 293 300 301 303 287 193 172 212 230 219 212 46 271 197 200 240 223 225 223 243 209 236 242 243 266 277 247 190 200 215 248 233 227 226 229 225 201 187 162 183 186 190 180 174 186 206 215 226
277 278 278 274 281 292 292 298 301 285 218 200 168 165 182 69 55 91 238 293 246 236 215 202 238 214 219 193 199 222 221 240 256 147 218 245 248 252 217 214 211 165 154 143 152 146 136 137 149 161 179 210 226 234
289 284 274 272 285 292 293 296 294 289 189 161 148 72 106 287 178 208 238 275 262 283 351 332 295 222 169 185 194 226 229 221 122 205 229 231 15 45 71 91 93 107 121 125 125 130 137 143 156 171 188 217 236 226
288 289 284 282 285 288 294 291 297 172 168 175 148 168 203 239 231 199 199 331 318 290 327 304 292 265 184 194 235 232 226 156 222 259 241 274 309 149 126 102 114 129 130 128 128 128 128 131 133 125 144 203 205 197
292 291 283 278 282 281 286 293 210 170 137 186 147 208 215 226 256 207 211 227 234 290 290 311 265 238 217 240 186 114 183 238 211 235 245 251 142 128 100 93 116 119 122 119 124 117 115 131 124 100 83 109 124 119
291 292 282 276 273 271 244 182 178 158 142 172 183 235 239 30 271 234 230 260 232 279 295 243 249 258 214 216 174 207 156 224 247 248 287 85 58 69 95 98 104 110 112 108 110 123 124 117 111 102 90 88 93 102
284 271 283 279 243 219 184 156 164 68 187 209 248 236 208 278 236 241 168 241 326 318 257 275 251 233 286 192 235 181 209 283 134 114 75 102 112 100 87 86 88 91 90 96 102 102 100 109 110 90 79 79 92 94
271 269 288 209 189 168 170 160 153 127 248 245 190 250 195 206 245 267 247 203 305 229 254 262 308 278 319 326 30 346 346 14 65 76 72 82 79 84 88 93 85 91 92 91 97 98 98 91 88 88 94 97 89 87
283 224 159 162 163 157 118 201 197 235 237 235 254 252 227 251 234 229 235 252 254 232 255 255 283 329 325 338 323 324 6 15 53 51 70 77 85 98 91 89 90 88 84 83 85 83 80 85 91 95 96 90 82 77
183 161 165 168 179 153 36 295 202 168 264 246 286 297 251 245 259 268 271 267 277 284 208 290 299 334 302 300 299 43 81 80 97 93 70 58 69 88 87 97 95 97 94 90 87 89 84 75 68 76 79 80 78 68
127 140 153 175 158 89 132 160 300 216 295 281 308 304 280 312 323 344 326 314 36 29 319 323 298 304 311 311 347 66 66 68 65 59 82 79 57 78 82 79 84 86 88 87 87 82 77 77 79 82 83 79 81 81
149 177 161 174 96 28 63 15 213 298 254 249 319 346 295 328 320 344 317 35 18 325 300 296 307 319 334 359 11 40 81 79 66 66 62 70 66 64 59 63 82 76 71 75 86 89 87 89 94 92 90 89 88 88
145 150 113 69 63 48 254 351 43 332 341 282 333 350 330 334 275 316 69 23 0 335 318 301 329 345 345 21 55 50 57 75 70 61 62 68 64 59 64 59 69 87 89 72 94 96 95 99 97 96 96 96 94 87
120 69 82 87 82 253 357 356 348 348 327 344 337 316 328 289 312 61 73 27 339 338 348 349 3 354 2 30 40 36 38 69 73 59 49 71 72 53 67 73 82 89 98 104 100 97 96 96 103 102 102 97 91 87
86 326 88 330 324 45 24 353 340 36 288 312 318 316 330 342 66 60 59 356 341 359 353 353 11 17 28 35 31 34 53 68 75 72 43 67 88 88 75 84 90 91 117 109 97 100 99 106 104 102 100 100 99 96
103 301 98 175 282 109 192 10 309 289 321 323 334 309 321 63 59 39 20 342 332 353 347 343 340 355 29 28 29 19 14 76 91 74 45 56 69 99 107 106 92 72 121 124 122 112 108 108 107 104 99 96 96 99
107 262 292 12 227 122 23 346 343 86 61 0 338 330 18 65 60 51 32 34 324 328 330 340 347 1 14 32 52 54 68 88 100 101 92 86 93 110 116 112 108 117 135 129 126 124 120 116 110 106 102 97 93 91
161 155 147 262 66 21 134 36 56 27 335 307 350 29 88 20 66 343 345 335 336 338 356 29 42 53 59 70 84 89 91 100 103 101 96 87 91 101 103 105 111 122 125 123 121 119 115 113 111 109 104 98 95 90
69 338 116 40 32 43 110 143 219 350 347 345 115 95 96 50 358 335 323 344 0 31 37 34 43 61 71 77 77 76 81 82 90 99 98 103 85 86 113 119 122 121 119 114 111 109 109 108 106 103 101 97 93 90
298 343 94 78 98 52 253 170 269 292 301 40 76 104 92 80 23 25 24 26 27 24 29 43 45 52 35 35 45 58 65 100 130 123 129 125 129 125 127 128 128 127 126 123 119 116 113 110 107 103 99 93 86 81
0 68 71 60 129 250 252 304 286 277 20 42 356 87 88 132 77 28 28 22 33 50 47 37 42 39 36 31 30 47 49 86 126 129 134 128 127 130 133 132 130 129 125 121 120 119 118 111 100 93 85 77 68 59
21 74 119 95 279 310 8 39 4 52 359 41 11 13 21 58 26 348 8 17 37 40 35 29 25 11 16 13 28 60 128 131 133 135 135 131 131 133 133 132 131 129 124 119 114 109 102 96 90 82 77 70 62 51
45 46 47 75 31 15 348 57 23 12 24 32 11 12 59 27 200 298 5 8 17 17 9 12 23 36 46 65 95 109 120 122 125 129 130 130 130 131 131 130 129 124 118 111 104 99 94 88 84 77 69 58 48 39